[[{"header":{"parameterUnit":"m.s-1","parameterCategory":1,"la1":30.2991,"la2":30.254,"lo1":-89.0895,"lo2":-89.0444,"dy":0.0017,"dx":0.0017,"nx":28,"ny":28,"refTime":"2024-02-19T03:00:00:Z","depth":0,"parameterNumber":2,"parameterNumberName":"U-component_of_WINDS"},"data":[0,0,0,0,0,0,0,0,0,0,0,0,0,0,0,0,0,0,0,0,0,0,0,0,0,0,0,0,0,0,0,0,0,0,0,0,0,0,0,0,0,0,0,0,0,0,0,0,0,0,0,0,0,0,0,0,0,0,-2.3185,-2.3186,0,-2.3242,-2.3243,-2.3244,-2.3176,-2.3173,-2.317,-2.3168,-2.3228,-2.3232,-2.3236,0,0,0,0,0,0,0,0,0,0,0,0,0,-2.3019,-2.3022,-2.3185,-2.3186,-2.3187,-2.3242,-2.3243,-2.3244,-2.3176,-2.3173,-2.317,-2.3167,-2.3227,-2.3232,-2.3236,0,0,0,0,0,0,0,0,0,0,0,0,0,-2.3085,-2.3023,-2.3185,-2.3159,-2.3158,-2.3242,-2.3243,-2.3244,-2.3177,-2.3173,-2.3169,-2.3165,-2.3225,-2.3231,-2.3237,-2.335,0,0,-2.3255,-2.3258,0,0,0,0,0,0,0,0,-2.3082,-2.3091,-2.3163,-2.3161,-2.316,-2.3198,-2.3206,-2.328,-2.3178,-2.317,-2.3168,-2.3164,-2.3221,-2.3227,-2.3246,-2.3353,-2.3355,-2.3256,-2.3259,-2.3262,-2.3263,0,0,0,0,0,0,0,-2.3077,-2.3089,-2.3208,-2.3164,-2.3162,-2.3146,-2.3151,-2.322,-2.3216,-2.317,-2.3165,-2.3173,-2.322,-2.3241,-2.3247,-2.3356,-2.3255,-2.3261,-2.3264,-2.3267,-2.3559,-2.3563,0,0,0,0,0,0,-2.3075,-2.3085,-2.3206,-2.321,-2.311,-2.3152,-2.3157,-2.3189,-2.3215,-2.3215,-2.3176,-2.3169,-2.3233,-2.324,-2.3249,-2.3384,-2.3262,-2.3267,-2.3271,-2.3554,-2.356,-2.3564,0,0,0,0,0,0,-2.3072,-2.3087,-2.3204,-2.3146,-2.316,-2.3159,-2.3195,-2.3193,-2.3214,-2.322,-2.3219,-2.3198,-2.323,-2.3241,-2.3325,-2.3385,-2.327,-2.3275,-2.355,-2.3556,-2.3562,-2.3655,0,0,0,0,0,0,-2.3067,-2.3086,-2.3128,-2.3148,-2.3163,-2.3279,-2.3199,-2.3196,-2.3224,-2.3216,-2.324,-2.3241,-2.3228,-2.3317,-2.3331,-2.3391,-2.328,-2.3544,-2.3552,-2.356,-2.3646,-2.3663,-2.3678,0,0,0,0,0,-2.3062,-2.3152,-2.3131,-2.3146,-2.3216,-2.3283,-2.3291,-2.3274,-2.3229,-2.3272,-2.3276,-2.324,-2.3376,-2.3326,-2.3342,-2.3405,-2.354,-2.355,-2.3559,-2.3639,-2.366,-2.3678,0,0,0,0,0,0,-2.3141,-2.3154,-2.3131,-2.323,-2.3256,-2.3271,-2.3325,-2.3297,-2.3336,-2.3327,-2.3304,-2.331,-2.3401,-2.341,-2.3355,-2.3516,-2.3451,-2.3464,-2.3506,-2.3526,-2.3542,-2.3538,-2.3285,0,0,0,0,0,-2.317,-2.3222,-2.3231,-2.3318,-2.3332,-2.3326,-2.3355,-2.3339,-2.3365,-2.3375,-2.3385,-2.3412,-2.3461,-2.3493,-2.3538,-2.3646,-2.3652,-2.3697,-2.3713,-2.3726,-2.3738,-2.3798,-2.3818,-2.3595,-2.3595,-2.3595,0,0,-2.323,-2.3244,-2.3279,-2.3334,-2.3352,-2.3408,-2.3336,-2.3397,-2.3439,-2.3385,-2.3466,-2.3474,-2.3502,-2.3599,-2.3643,-2.361,-2.3801,-2.3738,-2.3748,-2.3754,-2.3809,-2.3831,-2.3849,-2.3601,-2.36,-2.3599,0,0,-2.337,-2.3385,-2.3459,-2.3479,-2.3507,-2.3502,-2.352,-2.354,-2.3543,-2.3624,-2.3585,-2.3633,-2.3717,-2.3739,-2.3762,-2.3909,-2.3878,-2.3924,-2.4008,-2.4066,-2.4083,-2.4099,-2.4153,-2.4173,-2.3936,-2.3936,-2.3936,0,-2.3442,-2.3523,-2.3502,-2.3566,-2.3592,-2.3545,-2.3621,-2.3641,-2.3683,-2.3702,-2.3665,-2.377,-2.3786,-2.3888,-2.3924,-2.3943,-2.3964,-2.3923,-2.4082,-2.4098,-2.4112,-2.4164,-2.4184,-2.3942,-2.3941,-2.394,-2.394,0,-2.3612,-2.3669,-2.3726,-2.3767,-2.3799,-2.3869,-2.3859,-2.3894,-2.3875,-2.3875,-2.3958,-2.3975,-2.4023,-2.4046,-2.4028,-2.4146,-2.4125,-2.4086,-2.4021,-2.4139,-2.4188,-2.4207,-2.395,-2.3948,-2.3946,-2.3945,0,0,-2.3804,-2.3832,-2.3853,-2.3872,-2.3899,-2.3943,-2.4011,-2.4057,-2.4089,-2.4119,-2.4176,-2.4248,-2.4212,-2.4237,-2.4221,-2.4272,-2.439,-2.4226,-2.4227,-2.4258,-2.4523,-2.4554,-2.4577,-2.4368,-2.4372,-2.4375,-2.4521,0,-2.3945,-2.4063,-2.4045,-2.4159,-2.4212,-2.4168,-2.4227,-2.4251,-2.4252,-2.4298,-2.4299,-2.4351,-2.4298,-2.4313,-2.4361,-2.4365,-2.4443,-2.4354,-2.4423,-2.4426,-2.442,-2.4602,-2.4635,-2.4772,-2.4539,-2.4542,-2.4545,0,-2.4126,-2.4162,-2.4282,-2.4301,-2.4323,-2.4376,-2.4418,-2.4462,-2.4488,-2.4485,-2.4513,-2.4488,-2.4557,-2.4489,-2.4584,-2.4524,-2.4551,-2.4557,-2.4562,-2.4569,-2.4494,-2.4616,-2.4815,-2.4837,-2.4574,-2.4571,-2.4569,0,-2.4257,-2.4336,-2.4417,-2.4434,-2.4458,-2.4497,-2.4509,-2.4531,-2.456,-2.4597,-2.4616,-2.466,-2.4684,-2.4719,-2.4707,-2.4658,-2.4805,-2.4736,-2.4806,-2.4807,-2.4841,-2.484,-2.5049,-2.4855,-2.4855,-2.4854,-2.4854,0,-2.4418,-2.4493,-2.4477,-2.4528,-2.4611,-2.4589,-2.4672,-2.4679,-2.4698,-2.475,-2.4714,-2.4763,-2.4743,-2.4791,-2.4782,-2.4863,-2.4873,-2.4874,-2.4871,-2.4879,-2.4879,-2.4898,-2.4889,-2.486,-2.4858,-2.4857,-2.4856,0,-2.4579,-2.4571,-2.4658,-2.4673,-2.4679,-2.474,-2.4753,-2.4801,-2.4799,-2.4865,-2.4879,-2.4876,-2.4931,-2.4922,-2.4982,-2.4976,-2.5078,-2.5062,-2.5069,-2.5067,-2.5138,-2.5133,-2.5369,-2.54,-2.5184,-2.5186,-2.5187,0,-2.4683,-2.474,-2.4762,-2.4794,-2.4808,-2.486,-2.489,-2.4871,-2.4903,-2.4937,-2.4981,-2.5032,-2.5073,-2.5162,-2.5166,-2.5212,-2.5199,-2.5278,-2.5206,-2.5212,-2.5203,-2.52,-2.5207,-2.5294,-2.5296,-2.5298,-2.53,0,-2.487,-2.4863,-2.4907,-2.4951,-2.4987,-2.502,-2.505,-2.5078,-2.5062,-2.51,-2.5156,-2.5187,-2.5249,-2.5301,-2.5344,-2.5356,-2.5327,-2.5322,-2.5341,-2.5351,-2.5354,-2.5355,-2.5111,-2.5318,-2.5316,-2.5315,-2.5314,-2.5313,-2.5007,-2.5056,-2.5079,-2.513,-2.515,-2.5179,-2.5225,-2.5228,-2.5274,-2.5323,-2.5309,-2.5372,-2.5396,-2.5451,-2.5469,-2.5518,-2.5489,-2.5516,-2.5523,-2.5531,-2.5541,-2.5344,-2.5526,-2.5525,-2.5525,-2.5524,-2.5524,0,-2.5194,-2.5206,-2.5253,-2.5296,-2.5336,-2.5302,-2.5333,-2.537,-2.5426,-2.5451,-2.5491,-2.5555,-2.5605,-2.5613,-2.5661,-2.5699,-2.5687,-2.5712,-2.5711,-2.5714,-2.5563,-2.5543,-2.5722,-2.5722,-2.5722,-2.5722,-2.5722,-2.5722,-2.5296,-2.5378,-2.5373,-2.5465,-2.5476,-2.5538,-2.5559,-2.5586,-2.5606,-2.5679,-2.572,-2.5724,-2.5743,-2.5791,-2.5836,-2.5837,-2.5857,-2.5889,-2.5885,-2.5744,-2.5725,-2.5706,-2.5687,-2.5893,-2.5893,-2.6032,-2.6033,-2.6034]},{"header":{"parameterUnit":"m.s-1","parameterCategory":1,"la1":30.2991,"la2":30.254,"lo1":-89.0895,"lo2":-89.0444,"dy":0.0017,"dx":0.0017,"nx":28,"ny":28,"refTime":"2024-02-19T03:00:00:Z","depth":0,"parameterNumber":3,"parameterNumberName":"V-component_of_WINDS"},"data":[0,0,0,0,0,0,0,0,0,0,0,0,0,0,0,0,0,0,0,0,0,0,0,0,0,0,0,0,0,0,0,0,0,0,0,0,0,0,0,0,0,0,0,0,0,0,0,0,0,0,0,0,0,0,0,0,0,0,-2.9627,-2.9628,0,-2.9726,-2.9727,-2.9728,-2.9712,-2.971,-2.9708,-2.9707,-2.9808,-2.9812,-2.9816,0,0,0,0,0,0,0,0,0,0,0,0,0,-2.9424,-2.9427,-2.9627,-2.9628,-2.9629,-2.9726,-2.9727,-2.9728,-2.9712,-2.971,-2.9708,-2.9706,-2.9806,-2.9811,-2.9816,0,0,0,0,0,0,0,0,0,0,0,0,0,-2.9516,-2.9429,-2.9627,-2.9633,-2.9634,-2.9725,-2.9727,-2.9729,-2.9712,-2.971,-2.9707,-2.9705,-2.9805,-2.9811,-2.9817,-2.9908,0,0,-2.9837,-2.9839,0,0,0,0,0,0,0,0,-2.9511,-2.9524,-2.9631,-2.9633,-2.9634,-2.9704,-2.9692,-2.9789,-2.9713,-2.9683,-2.9707,-2.9704,-2.9775,-2.9784,-2.9808,-2.9913,-2.9917,-2.9837,-2.9841,-2.9844,-2.9846,0,0,0,0,0,0,0,-2.9504,-2.9519,-2.9666,-2.9632,-2.9635,-2.9631,-2.9641,-2.971,-2.9742,-2.9685,-2.9684,-2.9696,-2.9776,-2.9802,-2.981,-2.9919,-2.9837,-2.9843,-2.9847,-2.9849,-3.0103,-3.0106,0,0,0,0,0,0,-2.9496,-2.9514,-2.9663,-2.9669,-2.9565,-2.9636,-2.9648,-2.9684,-2.9741,-2.9748,-2.9698,-2.9695,-2.9792,-2.9803,-2.9814,-2.9925,-2.9844,-2.985,-2.9854,-3.0101,-3.0104,-3.0107,0,0,0,0,0,0,-2.9492,-2.951,-2.9659,-2.9591,-2.961,-2.9643,-2.9683,-2.9687,-2.9714,-2.9751,-2.9757,-2.9719,-2.9791,-2.9805,-2.9885,-2.9928,-2.9853,-2.9859,-3.0097,-3.0102,-3.0106,-3.0147,0,0,0,0,0,0,-2.9486,-2.9508,-2.9543,-2.9592,-2.9614,-2.9729,-2.9686,-2.9691,-2.9725,-2.9722,-2.9772,-2.9778,-2.979,-2.9875,-2.9891,-2.9935,-2.9864,-3.0093,-3.0099,-3.0104,-3.0142,-3.0152,-3.0161,0,0,0,0,0,-2.9479,-2.9551,-2.9545,-2.9563,-2.9658,-2.9731,-2.9743,-2.9755,-2.9728,-2.9764,-2.9788,-2.9777,-2.992,-2.9884,-2.9901,-2.9948,-3.0091,-3.0098,-3.0104,-3.0138,-3.015,-3.0161,0,0,0,0,0,0,-2.9506,-2.9557,-2.9552,-2.9641,-2.9682,-2.9728,-2.9774,-2.9768,-2.9817,-2.9812,-2.9824,-2.9835,-2.9917,-2.994,-2.9899,-3.0039,-3.0002,-3.0012,-3.0021,-3.0034,-3.0043,-3.0036,-2.9869,0,0,0,0,0,-2.9522,-2.9578,-2.9619,-2.9694,-2.9715,-2.9741,-2.9773,-2.9778,-2.9821,-2.9838,-2.9868,-2.991,-2.9964,-3.0,-3.0052,-3.0145,-3.0156,-3.0186,-3.0195,-3.0203,-3.0212,-3.0263,-3.0277,-3.0129,-3.0129,-3.0128,0,0,-2.9557,-2.9592,-2.9626,-2.9701,-2.9733,-2.979,-2.9755,-2.9817,-2.9859,-2.9847,-2.9925,-2.9949,-2.9996,-3.0083,-3.0123,-3.0105,-3.0255,-3.0211,-3.0217,-3.0222,-3.0271,-3.0285,-3.0298,-3.0133,-3.0132,-3.0132,0,0,-2.9649,-2.9681,-2.9747,-2.978,-2.9829,-2.9846,-2.9862,-2.9909,-2.9924,-3.0003,-2.9995,-3.0045,-3.0139,-3.0173,-3.0203,-3.0307,-3.0299,-3.0324,-3.0374,-3.0424,-3.0436,-3.0446,-3.0485,-3.0498,-3.0333,-3.0333,-3.0333,0,-2.9686,-2.9772,-2.9782,-2.9845,-2.9878,-2.987,-2.9937,-2.9969,-3.0032,-3.0055,-3.0034,-3.0152,-3.0183,-3.0278,-3.0304,-3.0328,-3.0347,-3.0319,-3.0433,-3.0444,-3.0454,-3.049,-3.0505,-3.0336,-3.0335,-3.0335,-3.0335,0,-2.9815,-2.9874,-2.9922,-2.9984,-3.0023,-3.0087,-3.0108,-3.0145,-3.0147,-3.0166,-3.0246,-3.0283,-3.0343,-3.0365,-3.0367,-3.0461,-3.0449,-3.043,-3.0393,-3.0471,-3.0505,-3.0519,-3.034,-3.0339,-3.0338,-3.0337,0,0,-2.9928,-2.9995,-3.0012,-3.004,-3.0094,-3.014,-3.0204,-3.0263,-3.0295,-3.0339,-3.0394,-3.0473,-3.0457,-3.049,-3.0496,-3.054,-3.0622,-3.0516,-3.0517,-3.0535,-3.0728,-3.0742,-3.0758,-3.0616,-3.0618,-3.0621,-3.0724,0,-3.0026,-3.014,-3.0151,-3.0253,-3.0309,-3.0301,-3.0357,-3.0396,-3.0415,-3.0465,-3.0485,-3.0542,-3.0515,-3.0536,-3.0578,-3.0603,-3.066,-3.0595,-3.0667,-3.067,-3.0657,-3.0776,-3.0791,-3.0887,-3.0738,-3.074,-3.0742,0,-3.0156,-3.0204,-3.0312,-3.0358,-3.0382,-3.0432,-3.0487,-3.0534,-3.0578,-3.0589,-3.0626,-3.0626,-3.0692,-3.0652,-3.0743,-3.0699,-3.0729,-3.0745,-3.0749,-3.0757,-3.0711,-3.0789,-3.0918,-3.0933,-3.0763,-3.0761,-3.076,0,-3.0229,-3.032,-3.0397,-3.0421,-3.0477,-3.0512,-3.0537,-3.0578,-3.0613,-3.066,-3.0683,-3.0738,-3.0768,-3.081,-3.0825,-3.0794,-3.0916,-3.0877,-3.0928,-3.0927,-3.0955,-3.0953,-3.1092,-3.0972,-3.0972,-3.0972,-3.0971,0,-3.0338,-3.0405,-3.0431,-3.0478,-3.0552,-3.0564,-3.0637,-3.066,-3.0696,-3.0748,-3.0744,-3.0793,-3.0809,-3.086,-3.0872,-3.0946,-3.096,-3.0971,-3.0973,-3.0972,-3.0971,-3.0992,-3.0987,-3.0976,-3.0975,-3.0974,-3.0973,0,-3.0433,-3.0453,-3.0536,-3.0581,-3.0594,-3.0647,-3.0686,-3.0732,-3.0749,-3.0815,-3.0831,-3.0859,-3.0919,-3.0938,-3.101,-3.1018,-3.1106,-3.1101,-3.1091,-3.1092,-3.1142,-3.1138,-3.1301,-3.1324,-3.1188,-3.1189,-3.119,0,-3.0502,-3.0553,-3.0604,-3.0638,-3.0664,-3.072,-3.0755,-3.0768,-3.0805,-3.0859,-3.0898,-3.0958,-3.1006,-3.1102,-3.1129,-3.1184,-3.1183,-3.1236,-3.1191,-3.1188,-3.1185,-3.1182,-3.1188,-3.1245,-3.1246,-3.1247,-3.1248,0,-3.0622,-3.063,-3.0681,-3.0736,-3.0779,-3.0822,-3.0865,-3.0893,-3.0912,-3.0954,-3.1015,-3.1053,-3.1127,-3.1186,-3.1242,-3.1267,-3.1262,-3.1262,-3.1277,-3.1277,-3.1269,-3.1275,-3.1116,-3.1259,-3.1258,-3.1257,-3.1256,-3.1256,-3.0707,-3.0752,-3.0796,-3.0853,-3.0886,-3.0926,-3.0971,-3.0995,-3.1046,-3.1108,-3.1112,-3.1179,-3.1221,-3.1296,-3.1324,-3.1376,-3.1361,-3.1382,-3.1388,-3.1393,-3.1398,-3.126,-3.1386,-3.1386,-3.1386,-3.1386,-3.1385,0,-3.0829,-3.0856,-3.0908,-3.0968,-3.1013,-3.1003,-3.1049,-3.1088,-3.1147,-3.1187,-3.1234,-3.1305,-3.1363,-3.1394,-3.1451,-3.1487,-3.1486,-3.1502,-3.15,-3.1506,-3.1408,-3.139,-3.1502,-3.1502,-3.1502,-3.1502,-3.1502,-3.1502,-3.0897,-3.0974,-3.0986,-3.1079,-3.1105,-3.1171,-3.1198,-3.1235,-3.1267,-3.1346,-3.1394,-3.1414,-3.1451,-3.1511,-3.1563,-3.1571,-3.1593,-3.161,-3.1617,-3.1525,-3.1513,-3.1502,-3.1485,-3.1615,-3.1615,-3.1711,-3.1711,-3.1712]}]]